Regional Weather Roundup
Issued by NWS Wakefield, VA

Home | Current Version | Previous Version | Text Only | Print | Product List | Glossary Off
Versions: 1 2 3 4 5 6 7 8 9 10 11 12 13 14 15 16 17 18 19 20 21 22 23 24 25 26 27 28 29 30 31 32 33 34 35 36 37 38 39 40 41 42 43 44 45 46 47 48 49 50

000
ASUS41 KAKQ 252015
RWRAKQ

REGIONAL WEATHER ROUNDUP
NATIONAL WEATHER SERVICE WAKEFIELD VA
400 PM EDT MON MAY 25 2015

Note: "fair" indicates few or no clouds below 12,000 feet with no
significant weather and/or obstructions to visibility. * = Denotes
station may not report precipitation (e.g., rain,snow,etc.),
thunder or fog.

VAZ042-051-052>054-056-252100-
NORTHERN VIRGINIA

CITY           SKY/WX    TMP DP  RH WIND       PRES   REMARKS
WASH NATIONAL  PTSUNNY   84  60  44 S16G23    30.21F
DULLES         PTSUNNY   82  59  45 S16G24    30.20F
FORT BELVOIR   MOSUNNY   83  59  44 S10G17    30.21F
QUANTICO       MOSUNNY   81  60  48 SW16      30.22F
FREDERICKSBRG* SUNNY     85  59  40 S13       30.22S
STAFFORD*      MOSUNNY   83  55  38 S12G18    30.26S
WARRENTON      MOSUNNY   83  62  47 S14G20    30.21S
CULPEPER*      MOSUNNY   81  58  44 S10G18    30.21F
MANASSAS*      SUNNY     82  57  42 S12G21    30.21F
LEESBURG*      MOSUNNY   86  61  42 S22       30.20F
WINCHESTER     SUNNY     86  45  23 S10G17    30.18F
FRONT ROYAL*   FAIR      82  61  47 S8        30.18S
LURAY*         FAIR      86  61  42 S10G18    30.20S
$$

VAZ048-049-060>072-079>083-252100-
CENTRAL AND SOUTH CENTRAL VIRGINIA

CITY           SKY/WX    TMP DP  RH WIND       PRES   REMARKS
RICHMOND       MOSUNNY   84  57  39 S17       30.24F
CHESTERFIELD*  NOT AVBL
PETERSBURG*    SUNNY     83  52  34 SE9G16    30.26S
HANOVER        SUNNY     83  57  41 S16G23    30.26S
TAPPAHANNOCK*  SUNNY     84  49  29 S8        30.25F
QUINTON*       FAIR      82  57  42 S7        30.25F
CHARLOTTSVILLE SUNNY     83  57  41 S14       30.22F
GORDONSVILLE*  FAIR      81  58  45 S10G20    30.22S
ORANGE*        MOSUNNY   82  59  44 S12G20    30.24S
LOUISA*        SUNNY     82  57  42 S12G17    30.23F
BUMPASS*       FAIR      81  59  46 SW7       30.24S
FARMVILLE*     SUNNY     83  54  36 S13G22    30.23F
CREWE*         FAIR      82  57  41 S9        30.25F
FORT PICKETT*  FAIR      82  57  42 SW10G21   30.26F
CHASE CITY*    FAIR      84  58  41 SW5       30.26F
CLARKSVILLE*   FAIR      81  54  39 SW8G16    30.25F
SOUTH HILL*    SUNNY     82  56  41 CALM      30.32F
LAWRENCEVILLE* FAIR      82  57  42 S7        30.26F
EMPORIA*       SUNNY     82  55  39 S6        30.28S
$$

VAZ088>098-252100-
SOUTHEAST VIRGINIA

CITY           SKY/WX    TMP DP  RH WIND       PRES   REMARKS
NORFOLK        PTSUNNY   82  56  40 S15G22    30.27F
VIRGINIA BEACH PTSUNNY   80  59  48 SE16      30.28F
NORFOLK NAVAL  MOSUNNY   88  57  34 VRB7      30.28F
WEST POINT*    SUNNY     86  51  30 S12       30.27S
SALUDA*        FAIR      82  60  47 S10G20    30.25F
NEWPORT NEWS   SUNNY     87  56  34 S14       30.26F
LANGLEY AFB    SUNNY     82  58  43 S13       30.25F
FORT EUSTIS    SUNNY     82  58  44 S8        30.24F
WILLIAMSBURG*  SUNNY     88  61  40 S6        30.27F
HR EXEC AP*    FAIR      82  57  42 S16       30.28F
FRANKLIN*      MOSUNNY   83  58  42 S12       30.27F
WAKEFIELD      SUNNY     83  56  39 S10G17    30.26F
$$

VAZ020-022-025-037-045-252100-
WEST CENTRAL AND SOUTHWEST VIRGINIA

CITY           SKY/WX    TMP DP  RH WIND       PRES   REMARKS
STAUNTON*      SUNNY     83  55  38 SW12G17   30.25S
WAYNESBORO*    MOCLDY    79  58  48 S10       30.25F
HOT SPRINGS VA MOSUNNY   71  56  59 SE7G16    30.33F
LYNCHBURG      SUNNY     81  53  37 S8        30.26F
DANVILLE       SUNNY     83  56  39 SW8       30.26F
SOUTH BOSTON*  FAIR      83  54  36 MISG      30.25F
MARTINSVILLE   SUNNY     83  54  36 SW6       30.29F
ROANOKE        MOSUNNY   82  57  42 S13       30.26F
BLACKSBURG     SUNNY     76  56  50 SW6       30.31F
DUBLIN*        SUNNY     78  57  47 SE7       30.29F
MARION*        PTSUNNY   80  59  48 E6        30.30S
HILLSVILLE*    SUNNY     73  57  58 S12       30.32F
RICHLANDS*     FAIR      80  56  44 SW7       30.27F
WISE*          PTSUNNY   81  52  36 S6        30.28F
ABINGDON*      SUNNY     84  48  28 SW3       30.25F
$$

MDZ021>025-VAZ099-100-252100-
SOUTHERN MARYLAND AND THE DELMARVA PENINSULA

CITY           SKY/WX    TMP DP  RH WIND       PRES   REMARKS
PATUXENT RIVER MOSUNNY   77  62  59 SE15      30.24F
BAY BRIDGE APT   N/A    N/A N/A N/A S13G18    30.23S
LEONARDTOWN    MOSUNNY   81  55  41 S7G17     30.25F
DOVER          SUNNY     83  60  44 S21G28    30.20F
GEORGETOWN     MOSUNNY   82  55  39 S20       30.26F
EASTON         MOSUNNY   82  61  47 S14G23    30.27F
CAMBRIDGE      MOSUNNY   79  59  50 S15       30.25S
SALISBURY      PTSUNNY   81  59  47 S13       30.26F
OCEAN CITY     MOSUNNY   72  62  71 S12G22    30.29F
WALLOPS ISLAND MOSUNNY   73  62  68 S17       30.30F
ACCOMACK*      SUNNY     77  63  61 S14G20    30.29F
$$

NCZ012>017-030>032-252100-
NORTH CENTRAL AND EASTERN NORTH CAROLINA

CITY           SKY/WX    TMP DP  RH WIND       PRES   REMARKS
ROANOKE RAPIDS FAIR      82  55  39 SE9       30.26F
RALEIGH        MOSUNNY   83  56  39 VRB7      30.27F
ELIZABETH CITY SUNNY     80  54  40 SE13      30.30F
AHOSKIE*       SUNNY     81  57  43 S8        30.27F
EDENTON*         N/A     81  56  42 S13       30.29F
CURRITUCK*     MOSUNNY   80  54  39 S6        30.31S
KILL DEVIL HLS SUNNY     77  56  47 S9        30.31F
MANTEO         MOSUNNY   76  60  57 S14       30.32F
CAPE HATTERAS  SUNNY     79  57  46 S13       30.33F
TARBORO*       FAIR      85  54  35 S7        30.28F
GOLDSBORO      SUNNY     84  57  38 S12G17    30.25F
WASHINGTON     SUNNY     82  56  40 SE8       30.29F
GREENVILLE     SUNNY     84  54  34 S12G18    30.28F
NEW BERN       SUNNY     82  54  37 S14       30.31F
WILMINGTON     SUNNY     79  61  53 S10       30.30F
$$

VAZ048-252100-
ELSEWHERE

CITY           SKY/WX    TMP DP  RH WIND       PRES   REMARKS
HARRISBURG PA  PTSUNNY   84  57  39 SW10G20   30.16F
BALTIMORE      PTSUNNY   83  58  42 SW17G24   30.20F
ANNAPOLIS      MOSUNNY   77  60  55 S15G24    30.22S
ANDREWS AFB    MOSUNNY   82  60  47 S17       30.21F
PHILADELPHIA   PTSUNNY   86  55  34 SW22G30   30.20F
HENDERSON NC   SUNNY     82  50  32 S9G16     30.27F
GREENSBORO     MOSUNNY   81  55  40 S9        30.27F
ROCKY MOUNT    SUNNY     84  57  39 S7        30.27F
$$

VAZ100-252100-
MARINE

STATION/POSITION TIME  TEMP    WIND        PRES    WAVE   SWELL
                       AIR SEA DIR/SP/G            HT/PER HT/PER
                 (UTC) (F)     (DEG/KT/KT) (MB)    (FT/S) (FT/S)
BRANDYWINE LGT   1900   68 66  180/ 15/ 16 1024.6F
CAPE MAY NJ      1900   71 69  170/ 12/ 15 1024.5F
LEWES DE         1900   82 64  250/ 10/ 19 1024.5F
15NM E FENWICK I 1950   64 61              1025.3F   2/ 4
OCEAN-CITY-INLET 1900   65 62  210/ 12/ 15 1025.6F
WACHAPREAGUE VA  1900   72 73  180/ 11/ 14 1026.1F
THOMAS POINT MD  2000   72 68  160/ 19/ 21 1023.8F
GOOSES REEF MD   2000   70 67  180/ 17/ 19 1024.8F   2/ 3
SOLOMONS ISLAND  1900      70                N/A
BISHOPS HEAD MD  1900   72 77  150/ 16/ 19 1024.7F
PINEY POINT MD   1900          200/ 11/ 13   N/A
CAMBRIDGE MD     1900   80 70  190/  7/ 16 1024.3F
LEWISETTA VA     1900   79 72              1024.1F
RAPPAHANNOCK LGT 1900          170/ 11/ 12 1026.2F
STINGRAY PT      2000   72 71  170/ 14/ 17 1024.8F   2/ 2
YORK RVR RNG VA  1900   71     140/ 15/ 18 1024.8F
YORKTOWN VA      1900   80 70  210/  9/ 16 1024.9F
JAMESTOWN VA     2000   80 74  210/  8/ 14 1023.6F
DOMINION TERM VA 1900   78     200/  7/ 11 1025.4F
KIPTOPEKE VA     1900      76  160/ 19/ 22   N/A
CHES BAY BRIDGE  1900   76 68  130/  7/ 16 1025.3F
CAPE HENRY VA    1900   73     140/ 16/ 20 1024.8F
CHESAPEAKE LGHT  1900   69     160/ 19/ 20 1026.8F
WILLOUBY STN VA  1900   80     180/ 13/ 15 1026.0F
CAPE HENRY BUOY  1928      67                N/A     2/ 3
1ST LANDING BUOY 2000      69              1025.1F
CAPE CHARLES BUO 1926      67                N/A     2/ 3   2/ 8
OFFSHORE WE BUOY 1911      64                N/A     2/ 7   2/ 7
64NM E OF VA BCH 1950   67 65  160/  8/  8 1026.8F   1/ 8   2/ 8
DUCK PIER NC     1900   70 65  130/ 14/ 16 1025.7F
44100 DUCK FRF   1924      65                N/A     1/ 8
44056 DUCK FRF   1911      66                N/A     1/ 8
OREGON INLET NC  1900   74 75  180/ 11/ 12 1027.2F
HATTERAS NC      1900   76 75  160/  9/ 12 1027.0F
DIAMOND SHLS NC  1950   74 78  160/ 12/ 14 1027.1F   2/ 8   2/ 8
CAPE LOOKOUT NC  2000   74     150/  9/ 11 1026.5F
$$


USA.gov is the U.S. government's official web portal to all federal, state and local government web resources and services.